Home > Weather > Memphis > Past weeks

Flag for U.S.A. Weather for the Past 2 Weeks in Memphis, Tennessee, U.S.A.

Now
29 °F

Clear.


Feels Like: 20 °F
Forecast: 23 / 38 °F
Wind: 10 mph from Northwest

Location: Memphis International Airport

Current Time: Feb 10, 2016 at 1:21:40 AM

Latest Report: Feb 10, 2016 at 12:54 AM


Visibility: 10 mi

Pressure: 30.18 "Hg

Humidity: 49%

Dew point: 12 °F

Location of MemphisLocation

Historic Weather in Memphis — Graph

°F

Memphis Temperature Yesterday

Maximum temperature yesterday: 40 °F (at 12:54 PM)
Minimum temperature yesterday: 28 °F (at 9:54 PM)
Average temperature yesterday: 34 °F

High & Low Weather Summary for the Past Weeks

 TemperatureHumidityPressure
High74 °F (Feb 2, 2:54 PM)93% (Feb 2, 1:54 AM)30.49 "Hg (Feb 2, 1:54 AM)
Low25 °F (Jan 28, 12:54 AM)24% (Feb 5, 12:54 PM)29.55 "Hg (Feb 2, 4:02 PM)
Average47 °F58%30.06 "Hg
* Reported Jan 25 11:54 PM — Feb 9 11:54 PM, Memphis, Weather by CustomWeather, © 2016

Note: Actual official high and low records may vary slightly from our data, if they occured in-between our weather recording intervals... More about our weather records

Advertising

Memphis Weather History for the Previous 24 Hours

 ConditionsComfort  
Time TempWeatherWind HumidityBarometerVisibility
11:54 PM
Tue, Feb 9
30 °FClear.9 mph49%30.18 "Hg10 mi
10:54 PM29 °FClear.5 mph54%30.17 "Hg10 mi
9:54 PM28 °FClear.3 mph53%30.16 "Hg10 mi
8:54 PM29 °FClear.5 mph51%30.16 "Hg10 mi
7:54 PM30 °FClear.5 mph49%30.16 "Hg10 mi
6:54 PM32 °FPassing clouds.8 mph43%30.15 "Hg10 mi
5:54 PM33 °FPassing clouds.13 mph43%30.12 "Hg10 mi
4:54 PM35 °FPassing clouds.17 mph40%30.09 "Hg10 mi
3:54 PM37 °FPassing clouds.16 mph37%30.07 "Hg10 mi
2:54 PM39 °FPassing clouds.17 mph34%30.05 "Hg10 mi
1:54 PM40 °FScattered clouds.18 mph35%30.02 "Hg10 mi
12:54 PM40 °FScattered clouds.17 mph35%30.01 "Hg10 mi
11:54 AM39 °FPartly sunny.16 mph36%30.03 "Hg10 mi
10:54 AM37 °FPartly sunny.16 mph39%30.02 "Hg10 mi
9:54 AM35 °FPartly sunny.18 mph44%30.00 "Hg10 mi
8:54 AM35 °FPassing clouds.18 mph42%30.00 "Hg10 mi
7:54 AM33 °FPassing clouds.14 mph49%29.99 "Hg10 mi
6:54 AM32 °FScattered clouds.20 mph47%29.98 "Hg10 mi
5:54 AM33 °FPartly sunny.20 mph48%29.96 "Hg10 mi
4:54 AM33 °FOvercast.8 mph56%29.96 "Hg10 mi
3:54 AM33 °FOvercast.10 mph54%29.96 "Hg10 mi
2:54 AM34 °FOvercast.12 mph52%29.96 "Hg10 mi
1:54 AM35 °FOvercast.21 mph48%29.96 "Hg10 mi
Weather by CustomWeather, © 2016

See weather overviewHow to use our weather pages